Location: Unspecified
(0.0000°N, 0.0000°E)
Time: 12:19:17
(UTC+00:00)

X-37B - Pass Details

Date: 27 November 2021
Orbit: 329 x 342 km, 45.0° (Epoch: 06 December)

Event Time Altitude Azimuth Distance (km) Brightness Sun altitude
Rises 18:26:11 0° 207° (SSW) 2,123 5.1 -8.9°
Reaches altitude 10° 18:28:22 10° 194° (SSW) 1,283 3.7 -9.4°
Maximum altitude 18:30:53 27° 133° (SE) 695 1.6 -10.0°
Enters shadow 18:32:33 16° 82° (E) 996 2.0 -10.4°
